User: anonymous   Login
Location: Caltech
(34.1382°N, 118.1253°W)
Time: 08:02:40
(UTC-08:00)
Language:

Iridium 21 - Orbit

View from above orbital plane
View from above orbital plane
View from above satellite
View from above satellite

Ground track
Ground track

The orbit data is extracted from the following two-line orbital elements,

1 25778U 99032B   17019.23248368  .00000167  00000-0  52418-4 0  9994
2 25778  86.3971 286.2300 0001918  85.1061 275.0353 14.34217817926769
Epoch (UTC): 19 January 2017 05:34:46
Eccentricity: 0.0001918
inclination: 86.3971°
perigee height: 776 km
apogee height: 779 km
right ascension of ascending node: 286.2300°
argument of perigee: 85.1061°
revolutions per day: 14.34217817
mean anomaly at epoch: 275.0353°
orbit number at epoch: 92676

The dashed part of the orbit path shows where the satellite is in the earth's shadow,  

DLR